Weather History for KVAY - December, 2013

Change the Weather History Date:

Saturday, December 28, 2013

  Actual Average (KWRI) Record (KWRI)
Temperature  
Mean Temperature 39 °F -  
Max Temperature 55 °F 40 °F 66 °F (2008)
Min Temperature 23 °F 24 °F 10 °F (2004)
Degree Days  
Heating Degree Days 26    
Moisture  
Dew Point 24 °F    
Average Humidity 57    
Maximum Humidity 88    
Minimum Humidity 29    
Precipitation  
Precipitation 0.00 in - - ()
Sea Level Pressure  
Sea Level Pressure 30.21 in    
Wind  
Wind Speed 4 mph (SW)    
Max Wind Speed 16 mph    
Max Gust Speed 25 mph    
Visibility 10 miles    
Events      
Averages and records for this station are not official NWS values.
T = Trace of Precipitation, MM = Missing Value Source: NWS Daily Summary

Daily Weather History Graph

Daily Weather History Graph

Search for Another Location

Airport or City:

Trip Planner

Search our weather history database for the weather conditions in past years. The results will help you decide how hot, cold, wet, or windy it might be!

Date:

Astronomy

Dec. 28, 2013 Rise Set
Actual Time 7:20 AM EST 4:41 PM EST
Civil Twilight 6:49 AM EST 5:12 PM EST
Nautical Twilight 6:15 AM EST 5:46 PM EST
Astronomical Twilight 5:42 AM EST 6:19 PM EST
Moon 2:54 AM EST (12/28) 1:31 PM EST (12/28)
Length of Visible Light 10h 22m
Length of Day
9h 21m
Waning Crescent, 19% of the Moon is Illuminated
Dec 28
Waning Crescent
Jan 1
New
Jan 7
First Quarter
Jan 15
Full
Jan 24
Last Quarter

Hourly Weather History & Observations

Time (EST) Temp. Windchill Dew Point Humidity Pressure Visibility Wind Dir Wind Speed Gust Speed Precip Events Conditions
12:54 AM 25.0 °F - 19.9 °F 81% 30.31 in 10.0 mi Calm Calm - N/A   Clear
1:54 AM 24.1 °F - 19.9 °F 84% 30.31 in 10.0 mi Calm Calm - N/A   Clear
2:54 AM 25.0 °F - 19.9 °F 81% 30.30 in 10.0 mi Calm Calm - N/A   Clear
3:54 AM 24.1 °F - 19.9 °F 84% 30.28 in 10.0 mi Calm Calm - N/A   Clear
4:54 AM 25.0 °F - 21.0 °F 85% 30.27 in 10.0 mi Calm Calm - N/A   Clear
5:54 AM 23.0 °F - 19.9 °F 88% 30.27 in 10.0 mi Calm Calm - N/A   Clear
6:54 AM 24.1 °F 19.7 °F 21.0 °F 88% 30.27 in 10.0 mi SSW 3.5 mph - N/A   Clear
7:54 AM 33.1 °F 26.9 °F 25.0 °F 72% 30.28 in 10.0 mi SW 6.9 mph - N/A   Clear
8:54 AM 37.0 °F 30.4 °F 25.0 °F 62% 30.28 in 10.0 mi SW 9.2 mph - N/A   Clear
9:54 AM 42.1 °F 36.6 °F 25.0 °F 51% 30.28 in 10.0 mi SW 9.2 mph - N/A   Mostly Cloudy
10:54 AM 48.0 °F - 25.0 °F 41% 30.25 in 10.0 mi SW 9.2 mph - N/A   Partly Cloudy
11:54 AM 53.1 °F - 26.1 °F 35% 30.21 in 10.0 mi SW 10.4 mph - N/A   Clear
12:54 PM 55.0 °F - 26.1 °F 33% 30.16 in 10.0 mi SW 15.0 mph 25.3 mph N/A   Clear
1:54 PM 55.9 °F - 25.0 °F 30% 30.14 in 10.0 mi WSW 15.0 mph 21.9 mph N/A   Clear
2:54 PM 55.9 °F - 24.1 °F 29% 30.13 in 10.0 mi WSW 16.1 mph 21.9 mph N/A   Clear
3:54 PM 55.0 °F - 25.0 °F 31% 30.14 in 10.0 mi SSW 10.4 mph 17.3 mph N/A   Clear
4:54 PM 51.1 °F - 26.1 °F 38% 30.16 in 10.0 mi SW 5.8 mph - N/A   Clear
5:54 PM 46.9 °F - 25.0 °F 42% 30.17 in 10.0 mi SW 3.5 mph - N/A   Clear
6:54 PM 43.0 °F 41.3 °F 25.0 °F 49% 30.16 in 10.0 mi SSW 3.5 mph - N/A   Clear
7:54 PM 45.0 °F 43.5 °F 25.0 °F 46% 30.16 in 10.0 mi SW 3.5 mph - N/A   Clear
8:54 PM 44.1 °F 42.5 °F 26.1 °F 49% 30.15 in 10.0 mi SSW 3.5 mph - N/A   Clear
9:54 PM 43.0 °F 41.3 °F 26.1 °F 51% 30.14 in 10.0 mi SSW 3.5 mph - N/A   Clear
10:54 PM 42.1 °F 39.2 °F 27.0 °F 55% 30.13 in 10.0 mi SW 4.6 mph - N/A   Clear
11:54 PM 42.1 °F - 27.0 °F 55% 30.11 in 10.0 mi Calm Calm - N/A   Clear